1494698400.82,35610,14.56,73506.3,-0.05,-2.23,-3.75,0,*56
1494698402.02,35611,14.56,73508.0,-0.05,-2.23,-3.79,0,*5B
1494698403.22,35612,14.56,73510.0,-0.03,-2.27,-3.55,0,*54
1494698404.39,35613,14.56,73508.0,-0.03,-2.23,-3.31,0,*53
1494698405.6,35614,14.56,73508.8,-0.03,-2.11,-3.15,0,*53
1494698406.81,35615,14.56,73508.0,-0.03,-2.11,-3.27,0,*53
1494698408.01,35616,14.56,73514.5,-0.03,-2.27,-3.51,0,*54
1494698409.19,35617,14.56,73510.3,-0.03,-2.35,-3.27,0,*57
1494698410.37,35618,14.56,73512.3,-0.03,-2.35,-3.03,0,*5E
1494698411.58,35619,14.56,73510.3,-0.03,-2.23,-2.67,0,*5B
1494698412.82,35620,14.56,73504.8,-0.03,-2.11,-2.63,0,*54
1494698414.02,35621,14.56,73510.0,-0.03,-1.99,-2.79,0,*5D
1494698415.21,35622,14.56,73508.0,-0.03,-2.15,-3.91,0,*5E
1494698416.44,35623,14.56,73512.0,-0.05,-2.79,-5.11,0,*5D
1494698417.7,35624,14.56,73512.0,-0.05,-3.63,-6.23,0,*52
1494698418.9,35625,14.56,73508.8,-0.05,-4.45,-6.01,0,*50
1494698420.16,35626,14.56,73508.5,-0.05,-4.01,-4.93,0,*5A
1494698421.4,35627,14.56,73508.8,-0.05,-3.67,-4.29,0,*5D
1494698422.63,35628,14.56,73508.0,-0.05,-3.55,-3.79,0,*51
1494698423.84,35629,14.56,73504.0,-0.05,-3.31,-3.87,0,*53
1494698425.06,35630,14.56,73504.8,-0.05,-3.31,-4.21,0,*50
1494698426.3,35631,14.56,73512.0,-0.05,-3.43,-4.57,0,*55
1494698427.51,35632,14.56,73504.0,-0.05,-3.79,-4.99,0,*5D
1494698428.73,35633,14.56,73500.8,-0.07,-4.13,-5.27,0,*51
1494698429.96,35634,14.56,73502.5,-0.05,-4.41,-5.61,0,*51
1494698431.19,35635,14.56,73506.5,-0.07,-4.85,-5.93,0,*57
1494698432.4,35636,14.56,73506.5,-0.07,-5.35,-5.77,0,*54
1494698433.58,35637,14.56,73508.8,-0.07,-5.35,-5.35,0,*53
1494698434.81,35638,14.56,73506.0,-0.07,-4.81,-5.11,0,*54
1494698436.05,35639,14.56,73506.0,-0.05,-4.17,-5.07,0,*5F
1494698437.25,35640,14.56,73508.8,-0.07,-3.95,-5.39,0,*53
1494698438.43,35641,14.56,73506.8,-0.07,-4.45,-6.81,0,*58
1494698439.63,35642,14.56,73504.3,-0.07,-6.27,-8.45,0,*5B
1494698440.9,35643,14.56,73504.0,-0.05,-7.57,-9.61,0,*59
1494698442.11,35644,14.56,73504.5,-0.07,-7.65,-9.79,0,*54
1494698443.34,35645,14.56,73510.8,-0.05,-6.89,-9.11,0,*5A
1494698444.55,35646,14.56,73510.5,-0.05,-6.55,-9.05,0,*5D
1494698445.79,35647,14.56,73502.3,-0.05,-6.13,-12.61,0,*66
1494698447.0,35648,14.56,73504.0,-0.07,-8.03,-13.69,0,*6D
1494698448.21,35649,14.56,73504.8,-0.07,-8.03,-12.03,0,*61
1494698449.44,35650,14.56,73504.0,-0.07,-7.77,-11.33,0,*65
1494698450.66,35651,14.56,73502.5,-0.07,-7.61,-10.31,0,*60
1494698451.86,35652,14.56,73504.8,-0.07,-7.87,-10.35,0,*6F
1494698453.1,35653,14.56,73504.5,-0.07,-7.91,-12.11,0,*6D
1494698454.33,35654,14.56,73506.5,-0.07,-8.03,-13.37,0,*6B
1494698455.58,35655,14.56,73504.8,-0.09,-8.07,-12.43,0,*62
1494698456.85,35656,14.56,73504.0,-0.09,-7.69,-12.35,0,*67
1494698458.09,35657,14.56,73500.5,-0.09,-7.91,-12.29,0,*6C
1494698459.33,35658,14.56,73502.3,-0.09,-8.29,-11.93,0,*6D
1494698460.55,35659,14.5,73500.3,-0.11,-8.29,-11.73,0,*5B
1494698461.77,35660,14.56,73502.3,-0.09,-8.37,-11.19,0,*6B
1494698462.98,35661,14.56,73506.5,-0.09,-8.33,-10.23,0,*66
1494698464.17,35662,14.56,73500.8,-0.11,-7.53,-8.89,0,*6C
1494698465.38,35663,14.5,73498.0,-0.11,-6.89,-8.03,0,*69
1494698466.59,35664,14.56,73502.3,-0.11,-6.05,-7.65,0,*65
1494698467.78,35665,14.56,73504.3,-0.11,-5.55,-9.01,0,*6E
1494698468.98,35666,14.56,73506.3,-0.11,-6.09,-12.29,0,*57
1494698470.22,35667,14.56,73506.8,-0.11,-7.27,-13.29,0,*5A
1494698471.44,35668,14.5,73502.5,-0.11,-8.07,-12.47,0,*51
1494698472.67,35669,14.56,73502.5,-0.11,-7.77,-10.35,0,*5F
1494698473.92,35670,14.5,73500.8,-0.11,-7.01,-10.79,0,*5E
1494698475.14,35671,14.56,73504.0,-0.11,-7.01,-10.89,0,*50
1494698476.38,35672,14.56,73504.8,-0.13,-6.69,-10.71,0,*59
1494698477.62,35673,14.56,73504.8,-0.13,-6.47,-9.15,0,*6E
1494698478.86,35674,14.56,73506.0,-0.13,-5.61,-8.37,0,*6F
1494698480.1,35675,14.56,73504.3,-0.15,-6.23,-9.45,0,*69
1494698481.34,35676,14.56,73502.3,-0.13,-6.63,-8.89,0,*69
1494698482.58,35677,14.56,73502.5,-0.13,-6.13,-7.95,0,*6D
1494698483.83,35678,14.56,73502.8,-0.13,-5.35,-7.61,0,*6E
1494698485.1,35679,14.56,73498.8,-0.13,-5.19,-8.07,0,*6E
1494698486.37,35680,14.56,73500.8,-0.13,-5.23,-9.57,0,*65
1494698487.59,35681,14.56,73502.3,-0.15,-5.47,-11.97,0,*55
1494698488.83,35682,14.56,73506.5,-0.15,-6.51,-15.39,0,*52
1494698490.07,35683,14.56,73502.8,-0.15,-7.43,-14.83,0,*51
1494698491.35,35684,14.56,73506.0,-0.13,-7.61,-13.61,0,*5B
1494698492.63,35685,14.56,73506.8,-0.13,-7.73,-14.05,0,*5C
1494698493.85,35686,14.56,73504.5,-0.15,-8.51,-13.65,0,*57
1494698495.07,35687,14.56,73506.3,-0.15,-8.75,-12.07,0,*55
1494698496.32,35688,14.56,73506.5,-0.15,-7.99,-10.79,0,*5C
1494698497.57,35689,14.56,73504.3,-0.15,-7.05,-10.71,0,*50
1494698498.79,35690,14.5,73504.5,-0.15,-6.81,-11.51,0,*56
1494698499.99,35691,14.56,73506.5,-0.15,-6.77,-12.39,0,*53
1494698501.19,35692,14.56,73508.8,-0.15,-7.53,-12.97,0,*53
1494698502.41,35693,14.56,73506.8,-0.15,-8.11,-13.65,0,*57
1494698503.62,35694,14.56,73504.5,-0.15,-8.81,-14.19,0,*55
1494698504.87,35695,14.56,73510.3,-0.15,-8.51,-13.83,0,*5D
1494698506.09,35696,14.56,73510.3,-0.15,-8.25,-14.93,0,*5B
1494698507.32,35697,14.56,73508.3,-0.17,-8.71,-15.15,0,*56
1494698508.55,35698,14.56,73506.8,-0.17,-8.67,-13.43,0,*5B
1494698509.78,35699,14.56,73506.5,-0.21,-8.03,-11.81,0,*51
1494698511.04,35700,14.56,73510.0,-0.17,-7.73,-10.97,0,*5B
1494698512.27,35701,14.56,73506.8,-0.17,-7.11,-10.49,0,*5D
1494698513.5,35702,14.56,73508.0,-0.17,-6.69,-10.45,0,*5C
1494698514.71,35703,14.5,73504.3,-0.21,-6.39,-11.33,0,*5D
1494698515.96,35704,14.56,73506.3,-0.17,-6.43,-11.55,0,*52
1494698517.15,35705,14.56,73506.8,-0.21,-6.73,-12.89,0,*57
1494698518.41,35706,14.56,73508.0,-0.17,-7.43,-14.37,0,*50
1494698519.62,35707,14.56,73508.5,-0.21,-7.73,-14.69,0,*5C
1494698520.87,35708,14.56,73506.3,-0.17,-7.91,-13.23,0,*53
1494698522.07,35709,14.56,73508.0,-0.21,-7.19,-10.45,0,*54
1494698523.3,35710,14.56,73506.0,-0.17,-6.13,-10.05,0,*56
1494698524.54,35711,14.56,73504.0,-0.21,-5.61,-10.71,0,*57
1494698525.78,35712,14.56,73504.3,-0.21,-5.77,-10.63,0,*50
1494698526.97,35713,14.56,73506.0,-0.21,-6.01,-9.93,0,*64
1494698528.18,35714,14.56,73508.3,-0.21,-5.73,-8.71,0,*68
1494698529.38,35715,14.56,73504.0,-0.21,-5.23,-8.71,0,*6C
1494698530.59,35716,14.56,73504.8,-0.21,-5.11,-8.93,0,*62
1494698531.8,35717,14.56,73506.5,-0.21,-5.39,-8.03,0,*60
1494698533.02,35718,14.5,73500.5,-0.21,-5.03,-7.23,0,*6B
1494698534.24,35719,14.56,73508.0,-0.21,-4.85,-7.99,0,*64
1494698535.47,35720,14.56,73506.5,-0.21,-4.73,-9.61,0,*6E
1494698536.7,35721,14.5,73504.0,-0.21,-5.15,-10.57,0,*53
1494698537.89,35722,14.56,73506.5,-0.21,-6.05,-10.89,0,*51
1494698539.07,35723,14.5,73504.3,-0.21,-6.31,-9.93,0,*64
1494698540.29,35724,14.5,73502.5,-0.21,-6.31,-7.73,0,*63
1494698541.48,35725,14.56,73500.8,-0.21,-5.47,-6.01,0,*64
1494698542.69,35726,14.56,73502.8,-0.21,-4.57,-5.85,0,*68
1494698543.93,35727,14.5,73502.5,-0.23,-4.01,-6.05,0,*63
1494698545.16,35728,14.5,73502.0,-0.25,-3.95,-6.19,0,*6D
1494698546.39,35729,14.5,73502.5,-0.23,-3.75,-5.55,0,*6F
1494698547.65,35730,14.56,73502.0,-0.23,-3.47,-4.77,0,*67
1494698548.84,35731,14.56,73502.3,-0.21,-3.31,-4.09,0,*6C
1494698550.03,35732,14.5,73500.5,-0.21,-3.27,-3.83,0,*6D
1494698551.21,35733,14.5,73498.0,-0.21,-3.03,-3.19,0,*69
1494698552.45,35734,14.5,73502.3,-0.21,-2.55,-2.67,0,*64
1494698553.64,35735,14.56,73504.8,-0.21,-2.27,-2.31,0,*63
1494698554.85,35736,14.56,73504.8,-0.21,-1.95,-2.19,0,*60
1494698556.08,35737,14.56,73500.5,-0.23,-1.79,-2.07,0,*6E
1494698557.27,35738,14.56,73500.5,-0.21,-1.67,-2.15,0,*6F
1494698558.45,35739,14.56,73502.0,-0.21,-1.63,-2.19,0,*66
1494698559.69,35740,14.5,73502.0,-0.23,-1.67,-2.47,0,*65
1494698560.9,35741,14.56,73504.5,-0.23,-1.67,-3.35,0,*60
1494698562.11,35742,14.56,73504.5,-0.21,-2.15,-6.19,0,*6C
1494698563.33,35743,14.5,73502.3,-0.21,-2.95,-9.61,0,*65
1494698564.56,35744,14.5,73502.5,-0.23,-3.43,-8.33,0,*6C
1494698565.8,35745,14.5,73500.3,-0.23,-3.23,-5.65,0,*65
1494698567.0,35746,14.5,73502.0,-0.21,-2.83,-4.93,0,*67
1494698568.24,35747,14.56,73500.0,-0.21,-2.59,-5.11,0,*6A
1494698569.45,35748,14.5,73502.0,-0.21,-2.71,-6.05,0,*69
1494698570.63,35749,14.5,73502.0,-0.21,-3.07,-6.73,0,*69
1494698571.87,35750,14.5,73500.8,-0.21,-3.47,-8.11,0,*6F
1494698573.09,35751,14.56,73502.0,-0.17,-4.09,-7.87,0,*66
1494698574.35,35752,14.56,73504.3,-0.17,-4.25,-7.77,0,*64
1494698575.55,35753,14.56,73504.5,-0.21,-4.49,-7.99,0,*6A
1494698576.8,35754,14.56,73510.3,-0.23,-5.77,-10.93,0,*5F
1494698578.06,35755,14.56,73506.0,-0.23,-7.35,-12.61,0,*55
1494698579.33,35756,14.5,73500.5,-0.23,-7.77,-11.77,0,*54
1494698580.56,35757,14.5,73502.8,-0.21,-7.99,-11.33,0,*57
1494698581.75,35758,14.5,73504.0,-0.21,-7.87,-9.67,0,*6F
1494698582.93,35759,14.56,73504.3,-0.21,-6.69,-7.19,0,*68
1494698584.15,35760,14.56,73506.3,-0.21,-5.23,-5.47,0,*66
1494698585.33,35761,14.5,73500.5,-0.21,-4.45,-4.57,0,*66
1494698586.56,35762,14.56,73506.3,-0.21,-3.55,-3.55,0,*66
1494698587.76,35763,14.56,73510.8,-0.21,-3.03,-3.47,0,*67
1494698588.94,35764,14.5,73504.3,-0.21,-2.91,-3.19,0,*61
1494698590.15,35765,14.56,73508.3,-0.21,-2.71,-2.83,0,*6C
1494698591.39,35766,14.56,73506.5,-0.21,-2.67,-2.51,0,*67
1494698592.62,35767,14.5,73504.3,-0.23,-2.55,-2.19,0,*69
1494698593.83,35768,14.5,73504.8,-0.21,-2.15,-1.91,0,*63
1494698595.07,35769,14.5,73506.8,-0.21,-1.91,-1.83,0,*6E
1494698596.34,35770,14.5,73506.8,-0.17,-2.03,-1.95,0,*6C
1494698597.56,35771,14.56,73510.0,-0.17,-1.75,-1.75,0,*61
1494698598.78,35772,14.56,73508.5,-0.17,-1.67,-1.67,0,*62
1494698599.96,35773,14.56,73508.0,-0.21,-1.55,-1.63,0,*63
1494698601.18,35774,14.56,73510.0,-0.17,-1.55,-1.51,0,*60
1494698602.36,35775,14.5,73504.3,-0.21,-1.51,-1.51,0,*60
1494698603.62,35776,14.5,73504.8,-0.17,-1.33,-1.43,0,*61
1494698604.87,35777,14.5,73500.0,-0.17,-1.33,-1.43,0,*60
1494698606.06,35778,14.5,73504.0,-0.21,-1.33,-1.51,0,*69
1494698607.28,35779,14.5,73502.0,-0.17,-1.29,-1.63,0,*67
1494698608.47,35780,14.5,73502.5,-0.21,-1.29,-1.63,0,*64
1494698609.71,35781,14.5,73500.3,-0.21,-1.39,-1.91,0,*69
1494698610.93,35782,14.5,73502.0,-0.17,-1.51,-2.15,0,*6E
1494698612.11,35783,14.5,73500.3,-0.21,-1.51,-2.43,0,*69
1494698613.35,35784,14.5,73496.3,-0.17,-1.43,-2.43,0,*68
1494698614.63,35785,14.5,73498.8,-0.17,-1.43,-2.51,0,*6A
1494698615.87,35786,14.5,73504.5,-0.17,-1.51,-2.55,0,*6E
1494698617.12,35787,14.5,73504.5,-0.17,-1.63,-2.71,0,*68
1494698618.34,35788,14.5,73504.0,-0.17,-1.55,-3.15,0,*61
1494698619.56,35789,14.5,73500.5,-0.17,-1.75,-4.25,0,*66
1494698620.77,35790,14.5,73500.0,-0.17,-1.67,-4.09,0,*63
1494698621.99,35791,14.5,73506.0,-0.17,-1.63,-4.17,0,*69
1494698623.2,35792,14.5,73504.3,-0.17,-1.67,-4.17,0,*6E
1494698624.42,35793,14.5,73504.0,-0.17,-1.75,-4.17,0,*6C
1494698625.6,35794,14.5,73502.5,-0.21,-1.67,-4.25,0,*6C
1494698626.81,35795,14.5,73504.0,-0.21,-1.75,-4.69,0,*66
1494698628.04,35796,14.56,73508.3,-0.17,-1.79,-4.37,0,*67
1494698629.3,35797,14.56,73504.5,-0.17,-1.83,-3.55,0,*60
1494698630.51,35798,14.5,73506.0,-0.17,-1.79,-3.19,0,*62
1494698631.73,35799,14.5,73506.0,-0.17,-1.75,-3.03,0,*64
1494698632.98,35800,14.5,73504.8,-0.17,-1.83,-3.03,0,*62
1494698634.23,35801,14.5,73500.0,-0.17,-1.83,-2.83,0,*6A
1494698635.49,35802,14.5,73504.0,-0.17,-1.91,-2.59,0,*6D
1494698636.74,35803,14.56,73506.8,-0.17,-1.91,-2.43,0,*67
1494698637.96,35804,14.5,73502.8,-0.17,-1.67,-2.15,0,*6A
1494698639.18,35805,14.5,73506.5,-0.17,-1.55,-2.15,0,*6A
1494698640.45,35806,14.56,73506.3,-0.17,-1.39,-2.03,0,*64
1494698641.7,35807,14.5,73502.8,-0.17,-1.33,-1.91,0,*67
1494698642.95,35808,14.56,73502.0,-0.17,-1.33,-1.83,0,*6B
1494698644.2,35809,14.5,73500.5,-0.15,-1.39,-2.03,0,*69
1494698645.42,35810,14.56,73500.3,-0.15,-1.47,-2.23,0,*6A
1494698646.6,35811,14.5,73504.8,-0.15,-1.51,-2.27,0,*68
1494698647.79,35812,14.5,73506.0,-0.15,-1.51,-2.35,0,*68
1494698648.97,35813,14.5,73506.0,-0.15,-1.59,-2.39,0,*6D
1494698650.22,35814,14.56,73510.0,-0.17,-1.91,-2.91,0,*6E
1494698651.46,35815,14.5,73502.0,-0.17,-2.07,-3.03,0,*69
1494698652.71,35816,14.5,73502.5,-0.17,-2.03,-3.31,0,*6F
1494698653.93,35817,14.5,73506.5,-0.17,-2.27,-4.21,0,*6E
1494698655.2,35818,14.5,73506.5,-0.17,-2.71,-5.11,0,*60
1494698656.45,35819,14.5,73500.8,-0.17,-3.31,-5.73,0,*60
1494698657.7,35820,14.5,73498.3,-0.17,-3.43,-5.39,0,*61
1494698658.95,35821,14.5,73504.8,-0.17,-3.27,-5.15,0,*6C
1494698660.17,35822,14.5,73506.3,-0.15,-3.11,-5.23,0,*6D
1494698661.39,35823,14.5,73506.0,-0.15,-3.11,-5.31,0,*6F
1494698662.61,35824,14.56,73504.5,-0.15,-2.99,-5.19,0,*63
1494698663.83,35825,14.5,73496.3,-0.15,-2.87,-4.69,0,*6B
1494698665.05,35826,14.5,73500.0,-0.15,-2.51,-4.41,0,*69
1494698666.27,35827,14.5,73502.0,-0.17,-2.31,-4.37,0,*6D
1494698667.49,35828,14.5,73502.0,-0.17,-2.31,-4.09,0,*6F
1494698668.68,35829,14.5,73500.8,-0.15,-2.27,-4.53,0,*64
1494698669.9,35830,14.5,73504.0,-0.15,-2.47,-5.47,0,*6E
1494698671.11,35831,14.5,73504.3,-0.15,-2.67,-5.47,0,*6D
1494698672.36,35832,14.5,73506.3,-0.15,-2.75,-5.19,0,*66
1494698673.61,35833,14.5,73504.3,-0.15,-2.63,-4.81,0,*60
1494698674.85,35834,14.5,73506.8,-0.15,-2.63,-5.19,0,*67
1494698676.1,35835,14.5,73504.8,-0.13,-2.87,-5.85,0,*6F
1494698677.3,35836,14.5,73506.3,-0.15,-3.27,-6.35,0,*69
1494698678.55,35837,14.5,73508.3,-0.13,-3.39,-5.31,0,*66
1494698679.74,35838,14.5,73510.3,-0.15,-3.23,-4.65,0,*64
1494698680.93,35839,14.5,73506.3,-0.15,-3.15,-4.17,0,*65
1494698682.14,35840,14.5,73504.3,-0.15,-2.99,-3.67,0,*6E
1494698683.34,35841,14.5,73510.0,-0.15,-2.99,-3.55,0,*6E
1494698684.55,35842,14.5,73512.0,-0.15,-2.99,-3.63,0,*68
1494698685.77,35843,14.5,73510.5,-0.15,-2.99,-4.01,0,*6A
1494698686.95,35844,14.5,73510.5,-0.15,-2.91,-4.05,0,*61
1494698688.17,35845,14.5,73510.8,-0.15,-2.67,-4.13,0,*6E
1494698689.41,35846,14.56,73514.5,-0.15,-2.51,-4.01,0,*6B
1494698690.61,35847,14.5,73512.3,-0.15,-2.39,-3.67,0,*63
1494698691.82,35848,14.5,73512.0,-0.15,-2.35,-3.51,0,*65
1494698693.03,35849,14.5,73510.5,-0.17,-2.31,-3.19,0,*6E
1494698694.22,35850,14.5,73508.0,-0.15,-2.15,-2.91,0,*63
1494698695.44,35851,14.5,73510.8,-0.15,-2.11,-2.87,0,*61
1494698696.63,35852,14.5,73508.3,-0.15,-2.15,-3.11,0,*68
1494698697.87,35853,14.5,73508.3,-0.13,-2.11,-3.39,0,*61
1494698699.12,35854,14.5,73510.0,-0.13,-1.99,-3.79,0,*61
1494698700.36,35855,14.5,73508.0,-0.15,-1.99,-3.63,0,*6D
1494698701.58,35856,14.5,73512.5,-0.15,-1.99,-3.27,0,*6E
1494698702.79,35857,14.5,73510.3,-0.15,-1.99,-3.23,0,*6B
1494698704.04,35858,14.5,73508.3,-0.13,-2.03,-3.27,0,*66
1494698705.3,35859,14.5,73510.8,-0.13,-1.99,-3.43,0,*65
1494698706.49,35860,14.5,73512.0,-0.15,-2.15,-3.87,0,*66
1494698707.67,35861,14.5,73512.3,-0.15,-2.39,-4.33,0,*61
1494698708.92,35862,14.56,73512.5,-0.13,-2.63,-4.45,0,*6A
1494698710.13,35863,14.5,73514.5,-0.15,-2.67,-4.53,0,*6E
1494698711.35,35864,14.5,73508.8,-0.13,-2.99,-4.99,0,*68
1494698712.59,35865,14.5,73508.8,-0.13,-3.03,-5.69,0,*65
1494698713.81,35866,14.5,73504.8,-0.15,-3.23,-5.81,0,*64
1494698715.0,35867,14.5,73504.3,-0.15,-3.35,-6.01,0,*69
1494698716.22,35868,14.5,73508.3,-0.15,-3.67,-6.81,0,*69
1494698717.41,35869,14.5,73510.0,-0.15,-3.79,-7.53,0,*69
1494698718.6,35870,14.5,73504.5,-0.15,-4.21,-8.67,0,*63
1494698719.86,35871,14.5,73504.8,-0.13,-5.23,-10.19,0,*57
1494698721.08,35872,14.5,73502.3,-0.15,-5.61,-8.93,0,*6F
1494698722.34,35873,14.5,73506.0,-0.13,-5.61,-7.31,0,*6F
1494698723.55,35874,14.5,73508.5,-0.15,-5.19,-5.97,0,*6F
1494698724.77,35875,14.5,73510.3,-0.15,-4.65,-5.31,0,*68
1494698726.0,35876,14.5,73508.8,-0.15,-4.21,-5.23,0,*68
1494698727.25,35877,14.5,73510.0,-0.13,-3.87,-5.61,0,*62
1494698728.47,35878,14.5,73512.5,-0.15,-3.55,-6.47,0,*63
1494698729.71,35879,14.5,73514.0,-0.15,-3.51,-7.57,0,*66
1494698730.91,35880,14.5,73512.0,-0.15,-4.29,-10.85,0,*51
1494698732.14,35881,14.5,73510.8,-0.15,-4.81,-9.61,0,*60
1494698733.38,35882,14.5,73512.0,-0.15,-4.69,-7.73,0,*68
1494698734.58,35883,14.5,73512.0,-0.15,-4.21,-6.47,0,*63
1494698735.85,35884,14.5,73514.0,-0.17,-3.59,-5.93,0,*64
1494698737.1,35885,14.5,73508.3,-0.17,-3.47,-6.13,0,*61
1494698738.34,35886,14.5,73512.3,-0.17,-3.71,-6.05,0,*60
1494698739.58,35887,14.5,73512.3,-0.21,-3.55,-5.85,0,*69
1494698740.81,35888,14.5,73512.0,-0.17,-3.19,-5.51,0,*62
1494698742.02,35889,14.5,73508.0,-0.17,-3.07,-5.47,0,*6B
1494698743.28,35890,14.5,73508.0,-0.17,-3.15,-5.23,0,*62
1494698744.51,35891,14.5,73508.8,-0.15,-3.15,-5.07,0,*67
1494698745.73,35892,14.5,73518.0,-0.15,-3.15,-5.23,0,*62
1494698746.98,35893,14.5,73514.5,-0.17,-3.19,-5.73,0,*68
1494698748.25,35894,14.5,73512.0,-0.17,-3.55,-6.19,0,*68
1494698749.5,35895,14.5,73510.5,-0.17,-3.91,-7.35,0,*6E
1494698750.77,35896,14.5,73510.0,-0.17,-4.69,-9.37,0,*61
1494698752.0,35897,14.5,73508.3,-0.17,-5.39,-10.35,0,*5E
1494698753.21,35898,14.5,73510.3,-0.21,-6.63,-13.43,0,*5A
1494698754.47,35899,14.5,73510.3,-0.17,-8.37,-16.17,0,*55
1494698755.73,35900,14.5,73514.3,-0.17,-10.15,-17.79,0,*64
1494698756.95,35901,14.5,73508.3,-0.21,-11.01,-17.55,0,*6A
1494698758.17,35902,14.5,73514.3,-0.21,-11.29,-17.31,0,*61
1494698759.41,35903,14.5,73514.0,-0.17,-10.19,-14.89,0,*67
1494698760.68,35904,14.5,73512.3,-0.23,-9.45,-13.61,0,*57
1494698761.93,35905,14.5,73504.8,-0.21,-9.41,-14.51,0,*54
1494698763.17,35906,14.5,73510.0,-0.21,-9.49,-14.83,0,*50
1494698764.37,35907,14.5,73508.3,-0.21,-8.93,-15.71,0,*5B
1494698765.62,35908,14.5,73508.8,-0.21,-9.41,-17.07,0,*59
1494698766.91,35909,14.5,73512.3,-0.17,-10.63,-17.79,0,*6C
1494698768.16,35910,14.5,73508.3,-0.23,-11.89,-18.65,0,*64
1494698769.4,35911,14.5,73508.8,-0.23,-11.51,-16.93,0,*67
1494698770.62,35912,14.5,73512.3,-0.21,-10.71,-17.31,0,*6C
1494698771.9,35913,14.5,73514.3,-0.23,-10.67,-16.69,0,*64
1494698773.11,35914,14.5,73512.0,-0.25,-9.27,-15.29,0,*5E
1494698774.34,35915,14.5,73510.8,-0.25,-8.07,-14.89,0,*57
1494698775.53,35916,14.5,73512.0,-0.25,-8.59,-15.67,0,*5E
1494698776.73,35917,14.5,73510.5,-0.25,-9.23,-15.95,0,*5E
1494698777.96,35918,14.5,73512.5,-0.25,-10.09,-15.81,0,*64
1494698779.19,35919,14.5,73514.5,-0.25,-10.35,-15.21,0,*60
1494698780.42,35920,14.5,73512.5,-0.25,-10.35,-14.01,0,*69
1494698781.63,35921,14.5,73512.3,-0.25,-8.71,-11.11,0,*55
1494698782.89,35922,14.5,73512.3,-0.27,-7.31,-9.61,0,*61
1494698784.09,35923,14.5,73512.0,-0.27,-6.73,-9.31,0,*62
1494698785.35,35924,14.5,73512.5,-0.27,-5.85,-8.81,0,*65
1494698786.62,35925,14.5,73512.8,-0.27,-5.31,-9.49,0,*6E
1494698787.84,35926,14.5,73514.0,-0.27,-5.47,-10.31,0,*5B
1494698789.09,35927,14.5,73514.3,-0.27,-6.01,-11.37,0,*5C
1494698790.31,35928,14.5,73512.8,-0.25,-6.31,-11.63,0,*53
1494698791.58,35929,14.5,73518.0,-0.27,-6.63,-13.33,0,*50
1494698792.85,35930,14.5,73516.0,-0.27,-8.07,-14.75,0,*51
1494698794.08,35931,14.5,73516.3,-0.29,-8.55,-13.97,0,*52
1494698795.32,35932,14.5,73514.8,-0.27,-9.27,-13.37,0,*51
1494698796.55,35933,14.5,73512.5,-0.29,-10.53,-12.79,0,*6E
1494698797.79,35934,14.5,73512.3,-0.29,-9.61,-11.51,0,*59
1494698798.98,35935,14.5,73514.0,-0.29,-8.67,-11.11,0,*5B
1494698800.22,35936,14.5,73512.3,-0.27,-7.65,-9.71,0,*64
1494698801.44,35937,14.5,73514.8,-0.27,-6.81,-9.71,0,*6E
1494698802.68,35938,14.5,73516.3,-0.27,-6.39,-9.83,0,*6F
1494698803.89,35939,14.5,73512.0,-0.29,-6.13,-9.57,0,*61
1494698805.16,35940,14.5,73512.5,-0.27,-5.93,-9.61,0,*6F
1494698806.38,35941,14.5,73518.8,-0.27,-6.01,-9.75,0,*63
1494698807.62,35942,14.5,73516.8,-0.27,-6.27,-10.01,0,*5F
1494698808.88,35943,14.5,73514.5,-0.27,-6.35,-10.41,0,*59
1494698810.1,35944,14.5,73516.8,-0.27,-6.09,-10.31,0,*56
1494698811.38,35945,14.5,73516.8,-0.27,-5.93,-10.41,0,*50
1494698812.63,35946,14.5,73516.0,-0.29,-5.81,-10.79,0,*55
1494698813.86,35947,14.5,73514.0,-0.29,-5.81,-10.93,0,*50
1494698815.09,35948,14.5,73514.5,-0.29,-5.97,-11.93,0,*59
1494698816.31,35949,14.5,73518.0,-0.29,-6.47,-12.75,0,*5D
1494698817.54,35950,14.5,73516.5,-0.29,-6.73,-13.97,0,*5F
1494698818.76,35951,14.5,73518.5,-0.29,-7.05,-15.63,0,*53
1494698820.03,35952,14.5,73518.5,-0.27,-7.69,-17.11,0,*53
1494698821.25,35953,14.5,73514.0,-0.27,-8.63,-17.73,0,*53
1494698822.47,35954,14.5,73514.8,-0.27,-9.19,-16.83,0,*56
1494698823.69,35955,14.5,73514.8,-0.29,-8.75,-14.79,0,*55
1494698824.91,35956,14.5,73514.5,-0.29,-8.11,-14.11,0,*5A
1494698826.11,35957,14.5,73512.5,-0.29,-7.83,-15.99,0,*5E
1494698827.33,35958,14.5,73516.8,-0.27,-8.55,-16.37,0,*5C
1494698828.55,35959,14.5,73516.3,-0.29,-8.67,-15.35,0,*53
1494698829.76,35960,14.5,73514.0,-0.29,-8.67,-15.49,0,*52
1494698830.99,35961,14.5,73512.5,-0.29,-8.51,-15.63,0,*5E
1494698832.26,35962,14.5,73518.3,-0.31,-7.99,-16.17,0,*5F
1494698833.51,35963,14.5,73518.8,-0.31,-8.55,-17.21,0,*55
1494698834.75,35964,14.5,73514.8,-0.31,-9.53,-16.55,0,*57
1494698835.96,35965,14.5,73514.3,-0.33,-9.79,-15.75,0,*5D
1494698837.19,35966,14.5,73518.3,-0.31,-10.19,-16.59,0,*6F
1494698838.42,35967,14.5,73512.5,-0.31,-11.01,-14.69,0,*67
1494698839.64,35968,14.5,73512.5,-0.31,-10.01,-14.11,0,*66
1494698840.86,35969,14.5,73516.5,-0.31,-9.67,-14.65,0,*5C
1494698842.08,35970,14.5,73512.5,-0.33,-9.15,-13.47,0,*54
1494698843.33,35971,14.5,73512.0,-0.31,-7.31,-10.35,0,*59
1494698844.55,35972,14.5,73512.8,-0.33,-6.23,-8.85,0,*68
1494698845.82,35973,14.5,73512.8,-0.31,-5.27,-7.69,0,*61
1494698847.02,35974,14.5,73514.8,-0.33,-4.77,-7.53,0,*69
1494698848.28,35975,14.5,73516.8,-0.31,-4.81,-8.11,0,*6A
1494698849.54,35976,14.5,73512.0,-0.31,-4.81,-9.37,0,*6C
1494698850.78,35977,14.5,73512.0,-0.31,-5.11,-10.85,0,*54
1494698852.0,35978,14.5,73516.5,-0.31,-5.35,-12.29,0,*59
1494698853.25,35979,14.5,73516.3,-0.31,-5.89,-14.89,0,*53
1494698854.51,35980,14.5,73518.3,-0.31,-7.19,-16.69,0,*52
1494698855.74,35981,14.5,73518.8,-0.33,-8.71,-15.89,0,*5D
1494698856.98,35982,14.5,73512.3,-0.31,-8.59,-12.53,0,*56
1494698858.2,35983,14.5,73512.3,-0.33,-7.35,-9.93,0,*66
1494698859.46,35984,14.5,73516.5,-0.31,-6.63,-8.51,0,*6E
1494698860.68,35985,14.5,73516.8,-0.33,-5.77,-9.05,0,*6B
1494698861.94,35986,14.5,73514.0,-0.31,-6.19,-10.15,0,*58
1494698863.15,35987,14.5,73516.8,-0.31,-6.39,-8.85,0,*6B
1494698864.37,35988,14.5,73514.5,-0.31,-5.35,-7.23,0,*68
1494698865.59,35989,14.5,73518.3,-0.31,-4.33,-6.31,0,*6C
1494698866.82,35990,14.5,73520.5,-0.31,-3.91,-6.39,0,*63
1494698868.04,35991,14.5,73518.3,-0.31,-3.79,-6.51,0,*6A
1494698869.3,35992,14.5,73518.8,-0.31,-3.83,-5.11,0,*6B
1494698870.51,35993,14.5,73516.5,-0.31,-3.07,-4.05,0,*62
1494698871.74,35994,14.5,73512.0,-0.31,-2.67,-3.19,0,*68
1494698872.96,35995,14.5,73514.3,-0.31,-2.27,-2.15,0,*60
1494698874.17,35996,14.5,73512.3,-0.31,-1.67,-1.75,0,*61
1494698875.39,35997,14.5,73514.5,-0.29,-1.39,-1.51,0,*64
1494698876.62,35998,14.5,73512.0,-0.29,-1.29,-1.39,0,*64
1494698877.84,35999,14.5,73512.3,-0.29,-1.25,-1.39,0,*69
1494698879.06,36000,14.5,73514.5,-0.29,-1.25,-1.35,0,*6F
1494698880.28,36001,14.5,73516.8,-0.29,-1.17,-1.35,0,*6F
1494698881.5,36002,14.5,73514.0,-0.29,-1.25,-1.35,0,*6D
1494698882.72,36003,14.5,73522.0,-0.29,-1.25,-1.47,0,*69
1494698883.96,36004,14.5,73512.5,-0.27,-1.25,-1.47,0,*60
1494698885.19,36005,14.5,73514.0,-0.27,-1.35,-1.59,0,*6F
1494698886.43,36006,14.5,73518.5,-0.27,-1.35,-1.51,0,*64
1494698887.69,36007,14.5,73518.0,-0.27,-1.35,-1.47,0,*62
1494698888.92,36008,14.5,73518.5,-0.29,-1.39,-1.51,0,*68
1494698890.19,36009,14.5,73516.3,-0.27,-1.39,-1.47,0,*60
1494698891.43,36010,14.5,73516.8,-0.27,-1.39,-1.51,0,*6F
1494698892.67,36011,14.5,73514.8,-0.27,-1.47,-1.51,0,*67
1494698893.91,36012,14.5,73516.5,-0.27,-1.39,-1.51,0,*6D
1494698895.18,36013,14.5,73514.0,-0.27,-1.47,-1.47,0,*62
1494698896.43,36014,14.5,73518.5,-0.25,-1.47,-1.43,0,*63
1494698897.67,36015,14.5,73516.0,-0.25,-1.35,-1.35,0,*66
1494698898.86,36016,14.5,73516.0,-0.25,-1.25,-1.33,0,*62
1494698900.08,36017,14.5,73514.8,-0.25,-1.25,-1.35,0,*65
1494698901.31,36018,14.5,73512.0,-0.23,-1.25,-1.47,0,*69
1494698902.53,36019,14.5,73518.0,-0.25,-1.25,-1.47,0,*6E
1494698903.77,36020,14.5,73518.0,-0.23,-1.35,-1.55,0,*60
1494698904.97,36021,14.5,73518.5,-0.25,-1.33,-1.67,0,*60
1494698906.19,36022,14.5,73518.8,-0.23,-1.33,-1.67,0,*65
1494698907.41,36023,14.5,73518.8,-0.23,-1.21,-1.67,0,*67
1494698908.65,36024,14.5,73518.0,-0.23,-1.35,-1.71,0,*62
1494698909.89,36025,14.5,73518.0,-0.23,-1.25,-1.83,0,*6F